�������l�o���
Date,Time,MP-1(��Sv/h),MP-2(��Sv/h),MP-3(��Sv/h),MP-4(��Sv/h),MP-5(��Sv/h),MP-6(��Sv/h),MP-7(��Sv/h),MP-8(��Sv/h),����,����(m/s),���J
2023/10/18,00:00,0.514,0.783,0.488,0.979,0.701,0.318,0.565,0.526,���k��,5.6,��
2023/10/18,00:10,0.515,0.782,0.485,0.979,0.699,0.317,0.565,0.525,���k��,6.6,��
2023/10/18,00:20,0.517,0.783,0.487,0.979,0.699,0.316,0.565,0.527,���k��,6.6,��
2023/10/18,00:30,0.516,0.783,0.487,0.979,0.700,0.318,0.565,0.526,�k��,7.6,��
2023/10/18,00:40,0.516,0.782,0.486,0.981,0.700,0.316,0.565,0.527,�k��,4.1,��
2023/10/18,00:50,0.515,0.783,0.485,0.981,0.702,0.316,0.566,0.526,���k��,1.2,��
2023/10/18,01:00,0.515,0.784,0.486,0.982,0.700,0.317,0.566,0.526,��쐼,0.9,��
2023/10/18,01:10,0.515,0.785,0.486,0.980,0.699,0.317,0.566,0.527,���k��,2.2,��
2023/10/18,01:20,0.515,0.784,0.486,0.980,0.697,0.316,0.565,0.526,�k��,3.2,��
2023/10/18,01:30,0.516,0.783,0.487,0.978,0.700,0.316,0.566,0.526,���k��,3.0,��
2023/10/18,01:40,0.514,0.784,0.485,0.979,0.699,0.317,0.565,0.526,��,3.6,��
2023/10/18,01:50,0.515,0.783,0.485,0.980,0.700,0.317,0.566,0.526,��,4.1,��
2023/10/18,02:00,0.515,0.782,0.485,0.978,0.700,0.317,0.565,0.527,���k��,4.7,��
2023/10/18,02:10,0.515,0.784,0.485,0.978,0.701,0.316,0.566,0.526,���k��,5.2,��
2023/10/18,02:20,0.516,0.782,0.485,0.978,0.699,0.317,0.565,0.526,���k��,4.8,��
2023/10/18,02:30,0.514,0.783,0.486,0.981,0.699,0.316,0.564,0.527,���k��,4.9,��
2023/10/18,02:40,0.515,0.782,0.485,0.978,0.699,0.316,0.565,0.527,���k��,4.3,��
2023/10/18,02:50,0.515,0.782,0.486,0.979,0.699,0.316,0.566,0.526,�k��,4.3,��
2023/10/18,03:00,0.515,0.782,0.485,0.980,0.701,0.315,0.565,0.526,�k��,4.5,��
2023/10/18,03:10,0.515,0.782,0.486,0.980,0.698,0.316,0.563,0.526,�k��,5.2,��
2023/10/18,03:20,0.516,0.783,0.485,0.980,0.698,0.317,0.566,0.525,�k��,5.5,��
2023/10/18,03:30,0.516,0.782,0.484,0.978,0.699,0.316,0.563,0.526,�k��,5.1,��
2023/10/18,03:40,0.515,0.781,0.486,0.980,0.700,0.316,0.565,0.527,�k��,4.7,��
2023/10/18,03:50,0.515,0.782,0.484,0.979,0.699,0.316,0.565,0.526,�k��,5.0,��
2023/10/18,04:00,0.515,0.782,0.485,0.979,0.700,0.317,0.565,0.526,�k��,5.1,��
2023/10/18,04:10,0.515,0.783,0.485,0.980,0.699,0.316,0.566,0.526,�k��,4.8,��
2023/10/18,04:20,0.515,0.783,0.485,0.980,0.701,0.316,0.564,0.525,���k��,4.5,��
2023/10/18,04:30,0.516,0.782,0.486,0.981,0.701,0.317,0.565,0.526,���k��,4.5,��
2023/10/18,04:40,0.514,0.783,0.486,0.976,0.698,0.316,0.564,0.526,��,4.1,��
2023/10/18,04:50,0.514,0.784,0.486,0.980,0.700,0.316,0.564,0.527,��,4.8,��
2023/10/18,05:00,0.515,0.783,0.486,0.979,0.700,0.315,0.563,0.526,���k��,6.6,��
2023/10/18,05:10,0.514,0.780,0.485,0.982,0.699,0.315,0.566,0.527,���k��,6.5,��
2023/10/18,05:20,0.514,0.782,0.485,0.982,0.701,0.316,0.565,0.524,���k��,5.0,��
2023/10/18,05:30,0.514,0.782,0.486,0.980,0.699,0.315,0.565,0.526,��,3.5,��
2023/10/18,05:40,0.515,0.781,0.487,0.980,0.699,0.317,0.565,0.525,���k��,3.8,��
2023/10/18,05:50,0.514,0.783,0.485,0.981,0.700,0.315,0.564,0.526,���k��,4.4,��
2023/10/18,06:00,0.514,0.782,0.486,0.981,0.698,0.316,0.567,0.525,���k��,3.4,��
2023/10/18,06:10,0.516,0.782,0.485,0.979,0.700,0.316,0.565,0.528,��,2.3,��
2023/10/18,06:20,0.514,0.779,0.486,0.979,0.700,0.316,0.562,0.526,��,1.7,��
2023/10/18,06:30,0.514,0.783,0.486,0.979,0.698,0.315,0.565,0.527,��,1.9,��
2023/10/18,06:40,0.516,0.784,0.486,0.980,0.700,0.316,0.565,0.526,��,1.4,��
2023/10/18,06:50,0.516,0.782,0.485,0.981,0.699,0.316,0.565,0.524,���쐼,1.7,��
2023/10/18,07:00,0.514,0.783,0.485,0.981,0.700,0.317,0.565,0.527,���쐼,2.6,��
2023/10/18,07:10,0.514,0.785,0.486,0.979,0.700,0.315,0.566,0.526,���쐼,2.9,��
2023/10/18,07:20,0.514,0.783,0.485,0.977,0.699,0.317,0.565,0.526,���쐼,2.3,��
2023/10/18,07:30,0.516,0.784,0.486,0.978,0.699,0.318,0.566,0.527,�쐼,1.9,��
2023/10/18,07:40,0.516,0.783,0.487,0.979,0.700,0.316,0.566,0.526,�쐼,1.5,��
2023/10/18,07:50,0.516,0.783,0.485,0.981,0.700,0.316,0.566,0.525,��쐼,1.2,��
2023/10/18,08:00,0.515,0.784,0.486,0.979,0.699,0.316,0.566,0.527,���k��,1.2,��
2023/10/18,08:10,0.516,0.782,0.486,0.980,0.699,0.316,0.568,0.526,-,CALM,��
2023/10/18,08:20,0.515,0.783,0.486,0.980,0.701,0.318,0.565,0.526,�k��,1.2,��
2023/10/18,08:30,0.514,0.781,0.486,0.981,0.701,0.316,0.564,0.525,�k,1.9,��
2023/10/18,08:40,0.514,0.779,0.485,0.982,0.700,0.316,0.563,0.526,�k,1.7,��
2023/10/18,08:50,0.515,0.782,0.488,0.979,0.699,0.316,0.563,0.528,�k,2.0,��
2023/10/18,09:00,0.512,0.781,0.487,0.980,0.699,0.317,0.562,0.528,�k�k��,2.3,��
2023/10/18,09:10,0.514,0.781,0.487,0.981,0.698,0.315,0.564,0.527,�k�k��,3.2,��
2023/10/18,09:20,0.515,0.783,0.487,0.979,0.700,0.316,0.565,0.527,�k��,2.9,��
2023/10/18,09:30,0.515,0.782,0.486,0.979,0.698,0.317,0.565,0.526,�k�k��,3.4,��
2023/10/18,09:40,0.514,0.781,0.487,0.974,0.698,0.317,0.564,0.527,�k�k��,2.9,��
2023/10/18,09:50,0.516,0.779,0.486,0.974,0.701,0.314,0.567,0.525,�k�k��,2.6,��
2023/10/18,10:00,0.515,0.777,0.485,0.978,0.699,0.315,0.566,0.525,�k��,3.7,��
2023/10/18,10:10,0.516,0.768,0.485,0.975,0.703,0.316,0.564,0.524,�k��,3.4,��
2023/10/18,10:20,0.516,0.769,0.484,0.976,0.701,0.315,0.565,0.524,���k��,3.7,��
2023/10/18,10:30,0.515,0.775,0.485,0.974,0.702,0.316,0.567,0.527,�k��,3.7,��
2023/10/18,10:40,0.515,0.770,0.486,0.977,0.699,0.316,0.564,0.525,�k��,4.0,��
2023/10/18,10:50,0.515,0.773,0.487,0.975,0.699,0.316,0.564,0.527,�k��,3.9,��
2023/10/18,11:00,0.516,0.770,0.486,0.978,0.702,0.314,0.564,0.525,�k��,4.6,��
2023/10/18,11:10,0.515,0.777,0.487,0.979,0.700,0.316,0.565,0.526,���k��,3.9,��
2023/10/18,11:20,0.516,0.787,0.486,0.977,0.700,0.316,0.564,0.524,���k��,3.6,��
2023/10/18,11:30,0.517,0.784,0.488,0.980,0.701,0.316,0.566,0.526,��,3.8,��
2023/10/18,11:40,0.516,0.782,0.486,0.978,0.701,0.316,0.566,0.525,��,3.4,��
2023/10/18,11:50,0.517,0.786,0.485,0.983,0.700,0.315,0.566,0.525,���쓌,4.0,��
2023/10/18,12:00,0.516,0.784,0.486,0.982,0.703,0.315,0.566,0.525,���쓌,2.6,��
2023/10/18,12:10,0.517,0.783,0.486,0.986,0.703,0.316,0.565,0.525,���쓌,2.6,��
2023/10/18,12:20,0.515,0.783,0.487,0.982,0.701,0.315,0.564,0.526,���쓌,3.1,��
2023/10/18,12:30,0.516,0.784,0.488,0.982,0.701,0.316,0.565,0.526,���쓌,3.9,��
2023/10/18,12:40,0.517,0.782,0.487,0.983,0.703,0.316,0.566,0.527,�쓌,3.1,��
2023/10/18,12:50,0.516,0.784,0.486,0.986,0.701,0.316,0.565,0.525,�쓌,3.3,��
2023/10/18,13:00,0.516,0.786,0.486,0.984,0.702,0.315,0.564,0.526,�쓌,3.2,��
2023/10/18,13:10,0.516,0.785,0.487,0.978,0.702,0.316,0.564,0.525,�쓌,3.6,��
2023/10/18,13:20,0.516,0.785,0.487,0.982,0.703,0.314,0.566,0.525,�쓌,3.4,��
2023/10/18,13:30,0.518,0.786,0.486,0.982,0.702,0.315,0.565,0.527,��쓌,3.9,��
2023/10/18,13:40,0.518,0.787,0.486,0.980,0.704,0.316,0.566,0.526,��쓌,3.6,��
2023/10/18,13:50,0.516,0.788,0.488,0.982,0.703,0.317,0.564,0.525,��쓌,4.0,��
2023/10/18,14:00,0.517,0.786,0.489,0.983,0.703,0.315,0.565,0.528,��쓌,2.8,��
2023/10/18,14:10,0.516,0.789,0.488,0.979,0.704,0.317,0.564,0.526,�쓌,3.2,��
2023/10/18,14:20,0.515,0.786,0.485,0.981,0.703,0.317,0.563,0.525,��쓌,3.7,��
2023/10/18,14:30,0.517,0.787,0.487,0.979,0.704,0.315,0.565,0.526,��쓌,4.4,��
2023/10/18,14:40,0.515,0.786,0.486,0.982,0.705,0.316,0.566,0.527,��쓌,3.8,��
2023/10/18,14:50,0.516,0.786,0.486,0.983,0.704,0.315,0.565,0.526,��쓌,3.1,��
2023/10/18,15:00,0.516,0.786,0.488,0.984,0.703,0.316,0.564,0.527,��쓌,3.5,��
2023/10/18,15:10,0.516,0.788,0.488,0.983,0.702,0.317,0.565,0.525,��쓌,3.7,��
2023/10/18,15:20,0.516,0.787,0.487,0.982,0.704,0.317,0.564,0.526,��쓌,3.7,��
2023/10/18,15:30,0.516,0.787,0.488,0.983,0.704,0.315,0.564,0.526,��쓌,3.8,��
2023/10/18,15:40,0.516,0.788,0.486,0.981,0.705,0.315,0.564,0.526,��,3.3,��
2023/10/18,15:50,0.515,0.787,0.486,0.982,0.703,0.315,0.565,0.524,��쓌,4.3,��
2023/10/18,16:00,0.515,0.788,0.487,0.981,0.703,0.316,0.564,0.525,��쓌,4.7,��
2023/10/18,16:10,0.516,0.786,0.487,0.983,0.704,0.317,0.564,0.526,��쓌,4.8,��
2023/10/18,16:20,0.516,0.787,0.487,0.982,0.704,0.317,0.564,0.525,��쓌,5.0,��
2023/10/18,16:30,0.518,0.789,0.487,0.982,0.702,0.317,0.564,0.526,��쓌,5.3,��
2023/10/18,16:40,0.516,0.790,0.487,0.982,0.703,0.317,0.564,0.525,��,6.0,��
2023/10/18,16:50,0.516,0.789,0.487,0.983,0.703,0.319,0.566,0.526,��,6.4,��
2023/10/18,17:00,0.515,0.789,0.485,0.985,0.704,0.318,0.566,0.526,��쓌,6.6,��
2023/10/18,17:10,0.516,0.790,0.488,0.987,0.705,0.317,0.565,0.527,��,6.9,��
2023/10/18,17:20,0.515,0.792,0.488,0.985,0.706,0.317,0.566,0.527,��,5.7,��
2023/10/18,17:30,0.516,0.790,0.488,0.984,0.707,0.316,0.566,0.528,��쐼,5.8,��
2023/10/18,17:40,0.516,0.790,0.487,0.986,0.708,0.319,0.565,0.528,��,7.1,��
2023/10/18,17:50,0.515,0.789,0.490,0.984,0.707,0.318,0.567,0.528,��,5.4,��
2023/10/18,18:00,0.517,0.790,0.489,0.985,0.708,0.317,0.566,0.528,��쐼,6.4,��
2023/10/18,18:10,0.518,0.791,0.489,0.984,0.708,0.317,0.566,0.527,��,6.1,��
2023/10/18,18:20,0.518,0.790,0.489,0.984,0.707,0.319,0.564,0.529,��쐼,6.4,��
2023/10/18,18:30,0.518,0.790,0.488,0.984,0.707,0.319,0.566,0.529,��,6.7,��
2023/10/18,18:40,0.519,0.791,0.488,0.985,0.708,0.318,0.566,0.528,��쐼,6.3,��
2023/10/18,18:50,0.519,0.791,0.490,0.986,0.707,0.319,0.565,0.527,��쐼,6.7,��
2023/10/18,19:00,0.519,0.790,0.490,0.983,0.707,0.318,0.566,0.527,��쐼,6.9,��
2023/10/18,19:10,0.517,0.789,0.489,0.983,0.707,0.319,0.567,0.527,��쐼,5.8,��
2023/10/18,19:20,0.519,0.791,0.490,0.986,0.707,0.319,0.566,0.527,��쐼,5.0,��
2023/10/18,19:30,0.519,0.792,0.489,0.985,0.706,0.318,0.565,0.528,��쐼,4.7,��
2023/10/18,19:40,0.517,0.791,0.489,0.985,0.707,0.317,0.566,0.526,��쐼,4.9,��
2023/10/18,19:50,0.519,0.789,0.490,0.986,0.705,0.318,0.566,0.528,��쐼,5.5,��
2023/10/18,20:00,0.519,0.791,0.488,0.985,0.707,0.318,0.565,0.528,��쐼,5.2,��
2023/10/18,20:10,0.517,0.790,0.489,0.984,0.708,0.317,0.564,0.527,��쐼,4.9,��
2023/10/18,20:20,0.518,0.791,0.491,0.985,0.706,0.320,0.568,0.529,��쐼,4.9,��
2023/10/18,20:30,0.520,0.791,0.491,0.987,0.708,0.317,0.566,0.527,��쐼,5.0,��
2023/10/18,20:40,0.518,0.789,0.490,0.983,0.707,0.318,0.566,0.528,��쐼,4.7,��
2023/10/18,20:50,0.519,0.789,0.489,0.984,0.708,0.318,0.567,0.529,��쐼,3.5,��
2023/10/18,21:00,0.517,0.790,0.489,0.984,0.707,0.317,0.566,0.526,��쐼,4.1,��
2023/10/18,21:10,0.517,0.791,0.488,0.985,0.707,0.319,0.567,0.529,��쐼,3.9,��
2023/10/18,21:20,0.518,0.789,0.487,0.985,0.706,0.318,0.566,0.527,�쐼,3.1,��
2023/10/18,21:30,0.519,0.790,0.489,0.983,0.706,0.318,0.565,0.527,�쐼,3.5,��
2023/10/18,21:40,0.519,0.789,0.488,0.986,0.707,0.318,0.565,0.528,��쐼,4.8,��
2023/10/18,21:50,0.517,0.789,0.489,0.986,0.705,0.319,0.567,0.528,��쐼,4.9,��
2023/10/18,22:00,0.518,0.788,0.488,0.985,0.706,0.317,0.565,0.527,��쐼,4.1,��
2023/10/18,22:10,0.518,0.789,0.488,0.986,0.707,0.320,0.565,0.528,��쐼,2.5,��
2023/10/18,22:20,0.518,0.788,0.489,0.985,0.706,0.318,0.566,0.528,�쐼,2.5,��
2023/10/18,22:30,0.519,0.788,0.488,0.984,0.709,0.318,0.567,0.527,��쐼,1.9,��
2023/10/18,22:40,0.517,0.788,0.487,0.984,0.708,0.317,0.567,0.527,�쐼,2.0,��
2023/10/18,22:50,0.518,0.788,0.488,0.983,0.706,0.318,0.566,0.528,�쐼,2.6,��
2023/10/18,23:00,0.518,0.790,0.489,0.983,0.706,0.319,0.566,0.528,��쐼,3.3,��
2023/10/18,23:10,0.519,0.789,0.487,0.984,0.706,0.318,0.566,0.528,��쐼,4.1,��
2023/10/18,23:20,0.518,0.788,0.487,0.982,0.706,0.318,0.564,0.527,��쐼,6.2,��
2023/10/18,23:30,0.516,0.788,0.489,0.985,0.706,0.318,0.566,0.529,��쐼,6.7,��
2023/10/18,23:40,0.518,0.789,0.488,0.986,0.706,0.318,0.565,0.528,��,6.6,��
2023/10/18,23:50,0.517,0.789,0.488,0.985,0.707,0.319,0.566,0.528,��쐼,7.2,��
